This is the latest recevied weather packets stored in our database for station/object VE3DVC. If no packets are shown the sender has not sent any weather packets the latest 10 day(s).
| Time | Temp. | Humidity | Pressure | Rain* | Wind** | Luminosity | Snow |
|---|---|---|---|---|---|---|---|
| 1777809571 | 3.33° C | 92% | 1013.8 hPa | 0 mm | - | - | - |
| 1777808851 | 2.22° C | 92% | 1013.8 hPa | 0 mm | - | - | - |
| 1777808131 | 2.22° C | 92% | 1013.8 hPa | 0 mm | - | - | - |
| 1777807411 | 1.67° C | 92% | 1013.7 hPa | 0 mm | - | - | - |
| 1777806691 | 1.11° C | 92% | 1013.6 hPa | 0 mm | - | - | - |
| 1777805971 | 1.11° C | 92% | 1013.6 hPa | 0 mm | - | - | - |
| 1777805251 | 1.11° C | 92% | 1013.5 hPa | 0 mm | - | - | - |
| 1777804531 | 0.56° C | 92% | 1013.4 hPa | 0 mm | - | - | - |
| 1777803811 | 0.56° C | 92% | 1013.3 hPa | 0 mm | - | - | - |
| 1777802679 | 0.56° C | 92% | 1013.4 hPa | 0 mm | - | - | - |
| 1777801958 | 0.56° C | 92% | 1013.4 hPa | 0 mm | - | - | - |
| 1777801238 | 0.56° C | 92% | 1013.4 hPa | 0 mm | - | - | - |
| 1777800518 | 0.56° C | 91% | 1013.4 hPa | 0 mm | - | - | - |
| 1777799799 | 0.56° C | 91% | 1013.6 hPa | 0 mm | - | - | - |
| 1777799078 | 0.56° C | 91% | 1013.6 hPa | 0 mm | - | - | - |
| 1777798359 | 0.56° C | 91% | 1013.8 hPa | 0 mm | - | - | - |
| 1777797638 | 0.56° C | 91% | 1013.8 hPa | 0 mm | - | - | - |
| 1777796918 | 0.56° C | 91% | 1013.8 hPa | 0 mm | - | - | - |
| 1777796199 | 0.56° C | 91% | 1013.8 hPa | 0 mm | - | - | - |
| 1777794480 | 0.56° C | 90% | 1014 hPa | 0 mm | - | - | - |
| 1777793760 | 0.56° C | 90% | 1014 hPa | 0 mm | - | - | - |
| 1777793040 | 0.56° C | 89% | 1014.1 hPa | 0 mm | - | - | - |
| 1777792320 | 0° C | 89% | 1014.1 hPa | 0 mm | - | - | - |
| 1777791600 | 0° C | 88% | 1014.2 hPa | 0 mm | - | - | - |
| 1777790880 | 0° C | 87% | 1014.3 hPa | 0 mm | - | - | - |
* Rain latest hour (hover to see other rain measurements)
** Current wind speed in m/s (hover to see current wind gust speed)